Time,TemperatureF,DewpointF,PressureIn,WindDirection,WindDirectionDegrees,WindSpeedMPH,WindSpeedGustMPH,Humidity,HourlyPrecipIn,Conditions,Clouds,dailyrainin,SoftwareType,DateUTC
2013-01-21 00:02:00,60.0,55.0,29.88,NNE,16,1.0,3.0,83,0.00,,,0.00,,2013-01-20 22:02:00,
2013-01-21 00:12:00,60.0,55.0,29.88,NNE,16,1.0,3.0,83,0.00,,,0.00,,2013-01-20 22:12:00,
2013-01-21 00:22:00,59.0,54.0,29.87,WSW,251,2.0,3.0,83,0.00,,,0.00,,2013-01-20 22:22:00,
2013-01-21 00:32:00,59.0,54.0,29.86,ENE,61,1.0,1.0,83,0.00,,,0.00,,2013-01-20 22:32:00,
2013-01-21 00:42:00,59.0,54.0,29.86,ENE,61,1.0,1.0,83,0.00,,,0.00,,2013-01-20 22:42:00,
2013-01-21 00:53:00,59.0,54.0,29.85,WNW,286,2.0,5.0,83,0.00,,,0.00,,2013-01-20 22:53:00,
2013-01-21 01:02:00,60.0,53.0,29.85,NW,316,1.0,4.0,78,0.00,,,0.00,,2013-01-20 23:02:00,
2013-01-21 01:12:00,60.0,53.0,29.85,NW,316,1.0,4.0,78,0.00,,,0.00,,2013-01-20 23:12:00,
2013-01-21 01:22:00,59.0,53.0,29.85,NE,43,1.0,3.0,80,0.00,,,0.00,,2013-01-20 23:22:00,
2013-01-21 01:32:00,58.0,53.0,29.84,North,0,0.0,0.0,82,0.00,,,0.00,,2013-01-20 23:32:00,
2013-01-21 01:42:00,58.0,53.0,29.84,North,0,0.0,0.0,82,0.00,,,0.00,,2013-01-20 23:42:00,
2013-01-21 01:53:00,57.0,53.0,29.84,North,0,0.0,0.0,85,0.00,,,0.00,,2013-01-20 23:53:00,
2013-01-21 02:02:00,56.0,52.0,29.84,NE,46,0.0,1.0,86,0.00,,,0.00,,2013-01-21 00:02:00,
2013-01-21 02:12:00,56.0,52.0,29.84,NE,46,0.0,1.0,86,0.00,,,0.00,,2013-01-21 00:12:00,
2013-01-21 02:22:00,57.0,53.0,29.84,North,4,0.0,0.0,87,0.00,,,0.00,,2013-01-21 00:22:00,
2013-01-21 02:32:00,57.0,53.0,29.83,WNW,292,0.0,1.0,87,0.00,,,0.00,,2013-01-21 00:32:00,
2013-01-21 02:42:00,57.0,53.0,29.83,WNW,292,0.0,1.0,87,0.00,,,0.00,,2013-01-21 00:42:00,
2013-01-21 02:53:00,57.0,53.0,29.83,North,0,0.0,0.0,86,0.00,,,0.00,,2013-01-21 00:53:00,
2013-01-21 03:02:00,57.0,53.0,29.83,North,0,0.0,0.0,87,0.00,,,0.00,,2013-01-21 01:02:00,
2013-01-21 03:12:00,57.0,53.0,29.83,North,0,0.0,0.0,87,0.00,,,0.00,,2013-01-21 01:12:00,
2013-01-21 03:22:00,57.0,53.0,29.83,East,88,0.0,0.0,87,0.00,,,0.00,,2013-01-21 01:22:00,
2013-01-21 03:32:00,57.0,53.0,29.83,West,277,0.0,1.0,88,0.00,,,0.00,,2013-01-21 01:32:00,
2013-01-21 03:42:00,57.0,53.0,29.83,West,277,0.0,1.0,88,0.00,,,0.00,,2013-01-21 01:42:00,
2013-01-21 03:53:00,57.0,54.0,29.83,WNW,296,0.0,1.0,89,0.00,,,0.00,,2013-01-21 01:53:00,
2013-01-21 04:02:00,57.0,54.0,29.82,North,0,0.0,0.0,90,0.00,,,0.00,,2013-01-21 02:02:00,
2013-01-21 04:11:00,57.0,54.0,29.82,North,0,0.0,0.0,90,0.00,,,0.00,,2013-01-21 02:11:00,
2013-01-21 04:22:00,57.0,54.0,29.81,West,281,0.0,1.0,91,0.00,,,0.00,,2013-01-21 02:22:00,
2013-01-21 04:32:00,57.0,54.0,29.81,WSW,243,1.0,2.0,91,0.00,,,0.00,,2013-01-21 02:32:00,
2013-01-21 04:42:00,57.0,54.0,29.81,WSW,243,1.0,2.0,91,0.00,,,0.00,,2013-01-21 02:42:00,
2013-01-21 04:53:00,57.0,54.0,29.80,West,273,1.0,2.0,91,0.00,,,0.00,,2013-01-21 02:53:00,
2013-01-21 05:02:00,57.0,54.0,29.80,SE,141,0.0,0.0,91,0.00,,,0.00,,2013-01-21 03:02:00,
2013-01-21 05:11:00,57.0,54.0,29.80,SE,141,0.0,0.0,91,0.00,,,0.00,,2013-01-21 03:11:00,
2013-01-21 05:22:00,57.0,55.0,29.80,NW,325,0.0,3.0,92,0.00,,,0.00,,2013-01-21 03:22:00,
2013-01-21 05:32:00,57.0,55.0,29.80,North,1,0.0,0.0,92,0.00,,,0.00,,2013-01-21 03:32:00,
2013-01-21 05:42:00,57.0,55.0,29.80,North,1,0.0,0.0,92,0.00,,,0.00,,2013-01-21 03:42:00,
2013-01-21 05:53:00,56.0,54.0,29.80,North,0,0.0,0.0,92,0.00,,,0.00,,2013-01-21 03:53:00,
2013-01-21 06:02:00,56.0,54.0,29.80,West,271,1.0,3.0,93,0.00,,,0.00,,2013-01-21 04:02:00,
2013-01-21 06:11:00,56.0,54.0,29.80,West,271,1.0,3.0,93,0.00,,,0.00,,2013-01-21 04:11:00,
2013-01-21 06:22:00,57.0,55.0,29.80,West,281,1.0,2.0,93,0.00,,,0.00,,2013-01-21 04:22:00,
2013-01-21 06:32:00,57.0,55.0,29.80,West,264,1.0,2.0,93,0.00,,,0.00,,2013-01-21 04:32:00,
2013-01-21 06:42:00,57.0,55.0,29.80,West,264,1.0,2.0,93,0.00,,,0.00,,2013-01-21 04:42:00,
2013-01-21 06:53:00,57.0,55.0,29.80,North,354,0.0,1.0,92,0.00,,,0.00,,2013-01-21 04:53:00,
2013-01-21 07:03:00,57.0,55.0,29.80,NW,314,1.0,3.0,92,0.00,,,0.00,,2013-01-21 05:03:00,
2013-01-21 07:12:00,57.0,55.0,29.80,NW,314,1.0,3.0,92,0.00,,,0.00,,2013-01-21 05:12:00,
2013-01-21 07:22:00,58.0,56.0,29.80,WNW,288,1.0,3.0,92,0.00,,,0.00,,2013-01-21 05:22:00,
2013-01-21 07:32:00,58.0,55.0,29.80,East,100,0.0,2.0,91,0.00,,,0.00,,2013-01-21 05:32:00,
2013-01-21 07:42:00,58.0,55.0,29.80,East,100,0.0,2.0,91,0.00,,,0.00,,2013-01-21 05:42:00,
2013-01-21 07:53:00,57.0,54.0,29.80,East,84,0.0,1.0,90,0.00,,,0.00,,2013-01-21 05:53:00,
2013-01-21 08:02:00,57.0,54.0,29.80,NE,45,0.0,0.0,91,0.00,,,0.00,,2013-01-21 06:02:00,
2013-01-21 08:12:00,57.0,54.0,29.80,NE,45,0.0,0.0,91,0.00,,,0.00,,2013-01-21 06:12:00,
2013-01-21 08:22:00,57.0,54.0,29.80,NE,45,0.0,0.0,89,0.00,,,0.00,,2013-01-21 06:22:00,
2013-01-21 08:32:00,57.0,54.0,29.80,NE,45,0.0,0.0,89,0.00,,,0.00,,2013-01-21 06:32:00,
2013-01-21 08:42:00,57.0,54.0,29.80,NE,45,0.0,0.0,89,0.00,,,0.00,,2013-01-21 06:42:00,
2013-01-21 08:53:00,57.0,54.0,29.80,NE,45,0.0,0.0,89,0.00,,,0.00,,2013-01-21 06:53:00,
2013-01-21 09:02:00,57.0,54.0,29.80,NE,45,0.0,0.0,89,0.00,,,0.00,,2013-01-21 07:02:00,
2013-01-21 09:23:00,60.0,55.0,29.78,NW,314,1.0,1.0,85,0.00,,,0.00,,2013-01-21 07:23:00,
2013-01-21 09:33:00,60.0,55.0,29.78,West,263,1.0,3.0,84,0.00,,,0.00,,2013-01-21 07:33:00,
2013-01-21 09:42:00,60.0,55.0,29.78,West,263,1.0,3.0,84,0.00,,,0.00,,2013-01-21 07:42:00,
2013-01-21 09:53:00,61.0,54.0,29.79,West,274,2.0,3.0,78,0.00,,,0.00,,2013-01-21 07:53:00,
2013-01-21 10:02:00,62.0,54.0,29.78,NW,310,2.0,4.0,74,0.00,,,0.00,,2013-01-21 08:02:00,
2013-01-21 10:12:00,62.0,54.0,29.78,NW,310,2.0,4.0,74,0.00,,,0.00,,2013-01-21 08:12:00,
2013-01-21 10:22:00,62.0,52.0,29.78,SW,215,3.0,6.0,69,0.00,,,0.00,,2013-01-21 08:22:00,
2013-01-21 10:32:00,63.0,52.0,29.79,WNW,303,2.0,5.0,67,0.00,,,0.00,,2013-01-21 08:32:00,
2013-01-21 10:42:00,63.0,52.0,29.79,WNW,303,2.0,5.0,67,0.00,,,0.00,,2013-01-21 08:42:00,
2013-01-21 10:53:00,64.0,52.0,29.78,NE,37,3.0,6.0,66,0.00,,,0.00,,2013-01-21 08:53:00,
2013-01-21 11:02:00,63.0,51.0,29.78,North,354,3.0,7.0,66,0.00,,,0.00,,2013-01-21 09:02:00,
2013-01-21 11:11:00,63.0,51.0,29.78,North,354,3.0,7.0,66,0.00,,,0.00,,2013-01-21 09:11:00,
2013-01-21 11:22:00,64.0,52.0,29.78,NE,36,3.0,7.0,65,0.00,,,0.00,,2013-01-21 09:22:00,
2013-01-21 11:32:00,64.0,51.0,29.78,NW,321,3.0,6.0,63,0.00,,,0.00,,2013-01-21 09:32:00,
2013-01-21 11:42:00,64.0,51.0,29.78,NW,321,3.0,6.0,63,0.00,,,0.00,,2013-01-21 09:42:00,
2013-01-21 11:53:00,66.0,54.0,29.77,NW,312,2.0,6.0,65,0.00,,,0.00,,2013-01-21 09:53:00,
2013-01-21 12:01:00,66.0,54.0,29.75,South,182,3.0,4.0,65,0.00,,,0.00,,2013-01-21 10:01:00,
2013-01-21 12:11:00,66.0,54.0,29.75,South,182,3.0,4.0,65,0.00,,,0.00,,2013-01-21 10:11:00,
2013-01-21 12:22:00,66.0,53.0,29.74,ENE,74,3.0,6.0,64,0.00,,,0.00,,2013-01-21 10:22:00,
2013-01-21 12:32:00,64.0,52.0,29.74,North,1,5.0,8.0,64,0.00,,,0.00,,2013-01-21 10:32:00,
2013-01-21 12:42:00,64.0,52.0,29.74,North,1,5.0,8.0,64,0.00,,,0.00,,2013-01-21 10:42:00,
2013-01-21 12:52:00,64.0,52.0,29.73,SW,231,5.0,10.0,65,0.00,,,0.00,,2013-01-21 10:52:00,
2013-01-21 13:02:00,64.0,52.0,29.72,NW,310,3.0,6.0,65,0.00,,,0.00,,2013-01-21 11:02:00,
2013-01-21 13:12:00,64.0,52.0,29.72,NW,310,3.0,6.0,65,0.00,,,0.00,,2013-01-21 11:12:00,
2013-01-21 13:22:00,64.0,52.0,29.72,SW,222,3.0,6.0,64,0.00,,,0.00,,2013-01-21 11:22:00,
2013-01-21 13:32:00,64.0,51.0,29.70,NW,317,4.0,6.0,63,0.00,,,0.00,,2013-01-21 11:32:00,
2013-01-21 13:42:00,64.0,51.0,29.70,NW,317,4.0,6.0,63,0.00,,,0.00,,2013-01-21 11:42:00,
2013-01-21 13:53:00,65.0,50.0,29.70,WNW,300,4.0,7.0,58,0.00,,,0.00,,2013-01-21 11:53:00,
2013-01-21 14:02:00,65.0,50.0,29.69,WNW,297,3.0,5.0,58,0.00,,,0.00,,2013-01-21 12:02:00,
2013-01-21 14:11:00,65.0,50.0,29.69,WNW,297,3.0,5.0,58,0.00,,,0.00,,2013-01-21 12:11:00,
2013-01-21 14:22:00,67.0,51.0,29.68,SSW,205,4.0,9.0,56,0.00,,,0.00,,2013-01-21 12:22:00,
2013-01-21 14:32:00,67.0,50.0,29.67,NE,56,6.0,12.0,55,0.00,,,0.00,,2013-01-21 12:32:00,
2013-01-21 14:42:00,67.0,50.0,29.67,NE,56,6.0,12.0,55,0.00,,,0.00,,2013-01-21 12:42:00,
2013-01-21 14:53:00,68.0,51.0,29.67,WNW,286,6.0,9.0,54,0.00,,,0.00,,2013-01-21 12:53:00,
2013-01-21 15:02:00,69.0,50.0,29.67,WNW,285,5.0,9.0,51,0.00,,,0.00,,2013-01-21 13:02:00,
2013-01-21 15:12:00,69.0,50.0,29.67,WNW,285,5.0,9.0,51,0.00,,,0.00,,2013-01-21 13:12:00,
2013-01-21 15:22:00,69.0,51.0,29.66,West,267,7.0,9.0,53,0.00,,,0.00,,2013-01-21 13:22:00,
2013-01-21 15:32:00,67.0,50.0,29.66,WNW,297,5.0,9.0,55,0.00,,,0.00,,2013-01-21 13:32:00,
2013-01-21 15:42:00,67.0,50.0,29.66,WNW,297,5.0,9.0,55,0.00,,,0.00,,2013-01-21 13:42:00,
2013-01-21 15:53:00,69.0,52.0,29.66,WSW,256,6.0,11.0,54,0.00,,,0.00,,2013-01-21 13:53:00,
2013-01-21 16:02:00,68.0,52.0,29.66,NNW,327,8.0,12.0,56,0.00,,,0.00,,2013-01-21 14:02:00,
2013-01-21 16:12:00,68.0,52.0,29.66,NNW,327,8.0,12.0,56,0.00,,,0.00,,2013-01-21 14:12:00,
2013-01-21 16:22:00,68.0,54.0,29.66,SSE,165,4.0,8.0,60,0.00,,,0.00,,2013-01-21 14:22:00,
2013-01-21 16:32:00,65.0,53.0,29.65,NW,314,5.0,15.0,66,0.00,,,0.00,,2013-01-21 14:32:00,
2013-01-21 16:42:00,65.0,53.0,29.65,NW,314,5.0,15.0,66,0.00,,,0.00,,2013-01-21 14:42:00,
2013-01-21 16:53:00,64.0,53.0,29.65,East,99,6.0,12.0,68,0.00,,,0.00,,2013-01-21 14:53:00,
2013-01-21 17:02:00,64.0,54.0,29.65,WSW,246,5.0,8.0,71,0.00,,,0.00,,2013-01-21 15:02:00,
2013-01-21 17:12:00,64.0,54.0,29.65,WSW,246,5.0,8.0,71,0.00,,,0.00,,2013-01-21 15:12:00,
2013-01-21 17:22:00,63.0,54.0,29.64,North,351,5.0,8.0,73,0.00,,,0.00,,2013-01-21 15:22:00,
2013-01-21 17:32:00,62.0,55.0,29.63,WNW,292,5.0,8.0,77,0.00,,,0.00,,2013-01-21 15:32:00,
2013-01-21 17:42:00,62.0,55.0,29.63,WNW,292,5.0,8.0,77,0.00,,,0.00,,2013-01-21 15:42:00,
2013-01-21 17:53:00,62.0,55.0,29.63,WNW,284,5.0,7.0,78,0.00,,,0.00,,2013-01-21 15:53:00,
2013-01-21 18:02:00,62.0,56.0,29.62,ENE,63,5.0,9.0,80,0.00,,,0.00,,2013-01-21 16:02:00,
2013-01-21 18:12:00,62.0,56.0,29.62,ENE,63,5.0,9.0,80,0.00,,,0.00,,2013-01-21 16:12:00,
2013-01-21 18:22:00,62.0,56.0,29.64,NE,35,4.0,8.0,82,0.00,,,0.00,,2013-01-21 16:22:00,
2013-01-21 18:32:00,62.0,57.0,29.63,ENE,59,6.0,9.0,83,0.00,,,0.00,,2013-01-21 16:32:00,
2013-01-21 18:43:00,62.0,57.0,29.63,ENE,59,6.0,9.0,83,0.00,,,0.00,,2013-01-21 16:43:00,
2013-01-21 18:53:00,62.0,57.0,29.63,NNW,330,6.0,9.0,84,0.00,,,0.00,,2013-01-21 16:53:00,
2013-01-21 19:02:00,62.0,57.0,29.64,North,355,4.0,6.0,84,0.00,,,0.00,,2013-01-21 17:02:00,
2013-01-21 19:12:00,62.0,57.0,29.64,North,355,4.0,6.0,84,0.00,,,0.00,,2013-01-21 17:12:00,
2013-01-21 19:22:00,62.0,57.0,29.65,NW,306,5.0,9.0,85,0.00,,,0.00,,2013-01-21 17:22:00,
2013-01-21 19:32:00,62.0,57.0,29.65,WSW,253,4.0,7.0,85,0.00,,,0.00,,2013-01-21 17:32:00,
2013-01-21 19:42:00,62.0,57.0,29.65,WSW,253,4.0,7.0,85,0.00,,,0.00,,2013-01-21 17:42:00,
2013-01-21 19:53:00,62.0,57.0,29.65,NW,308,6.0,9.0,84,0.00,,,0.00,,2013-01-21 17:53:00,
2013-01-21 20:02:00,62.0,57.0,29.64,SW,226,6.0,10.0,85,0.00,,,0.00,,2013-01-21 18:02:00,
2013-01-21 20:11:00,62.0,57.0,29.64,SW,226,6.0,10.0,85,0.00,,,0.00,,2013-01-21 18:11:00,
2013-01-21 20:22:00,62.0,58.0,29.65,NW,322,6.0,9.0,86,0.00,,,0.00,,2013-01-21 18:22:00,
2013-01-21 20:32:00,62.0,58.0,29.65,NE,53,5.0,7.0,87,0.00,,,0.00,,2013-01-21 18:32:00,
2013-01-21 20:42:00,62.0,58.0,29.65,NE,53,5.0,7.0,87,0.00,,,0.00,,2013-01-21 18:42:00,
2013-01-21 20:52:00,61.0,57.0,29.65,WSW,248,5.0,6.0,88,0.00,,,0.00,,2013-01-21 18:52:00,
2013-01-21 21:02:00,61.0,57.0,29.62,ENE,73,4.0,6.0,87,0.00,,,0.00,,2013-01-21 19:02:00,
2013-01-21 21:12:00,61.0,56.0,29.62,SW,214,3.0,7.0,85,0.00,,,0.00,,2013-01-21 19:12:00,
2013-01-21 21:22:00,61.0,56.0,29.62,SW,214,3.0,7.0,85,0.00,,,0.00,,2013-01-21 19:22:00,
2013-01-21 21:32:00,61.0,56.0,29.62,NW,311,5.0,8.0,83,0.00,,,0.00,,2013-01-21 19:32:00,
2013-01-21 21:42:00,61.0,56.0,29.62,NW,311,5.0,8.0,83,0.00,,,0.00,,2013-01-21 19:42:00,
2013-01-21 21:53:00,61.0,56.0,29.62,WNW,294,5.0,7.0,84,0.00,,,0.00,,2013-01-21 19:53:00,
2013-01-21 22:02:00,61.0,56.0,29.63,NNW,335,5.0,9.0,85,0.00,,,0.00,,2013-01-21 20:02:00,
2013-01-21 22:12:00,61.0,56.0,29.63,NNW,335,5.0,9.0,85,0.00,,,0.00,,2013-01-21 20:12:00,
2013-01-21 22:22:00,61.0,56.0,29.63,WSW,258,5.0,9.0,85,0.00,,,0.00,,2013-01-21 20:22:00,
2013-01-21 22:32:00,61.0,58.0,29.63,NW,311,4.0,9.0,89,0.00,,,0.00,,2013-01-21 20:32:00,
2013-01-21 22:42:00,61.0,58.0,29.63,NW,311,4.0,9.0,89,0.00,,,0.00,,2013-01-21 20:42:00,
2013-01-21 22:53:00,61.0,58.0,29.62,WSW,242,3.0,5.0,90,0.00,,,0.00,,2013-01-21 20:53:00,
2013-01-21 23:02:00,60.0,57.0,29.62,WNW,283,2.0,4.0,91,0.00,,,0.00,,2013-01-21 21:02:00,
2013-01-21 23:12:00,60.0,57.0,29.62,WNW,283,2.0,4.0,91,0.00,,,0.00,,2013-01-21 21:12:00,
2013-01-21 23:22:00,60.0,57.0,29.63,West,277,2.0,5.0,89,0.00,,,0.00,,2013-01-21 21:22:00,
2013-01-21 23:32:00,60.0,56.0,29.62,East,94,1.0,4.0,88,0.00,,,0.00,,2013-01-21 21:32:00,
2013-01-21 23:42:00,60.0,56.0,29.62,East,94,1.0,4.0,88,0.00,,,0.00,,2013-01-21 21:42:00,
2013-01-21 23:53:00,60.0,56.0,29.63,NNE,17,0.0,0.0,88,0.00,,,0.00,,2013-01-21 21:53:00,